Back to catalog

FENGYUN 1C DEB

LostSSO
NORAD 35096·DEBRIS·🇨🇳 China

Launched May 10, 1999 from Taiyuan Satellite Launch Center

Loading…

Next Passes (next 24 hours)

TLE

StaleSource: Space-Track

Epoch: Apr 11, 2013, 16:01 UTC

1 35096U 99025DJY 13101.66788433  .00001134  00000-0  20989-3 0  9999
2 35096  97.6964 253.7564 0171510 282.0120 139.7816 14.58203864264129

Track FENGYUN 1C DEB in real time with AllMySat

Download on the App Store